| time (UTC) | temp F | wind direction | speed knots | gust knots | rain 1hr in | rain 24hr in | rain mn in | humidity % | barometer mb |
| 20260507040105 | 59 | 270 | 0.9 | 1.7 | 0.00 | 0.09 | 0.00 | 98 | 1009.1 |
| 20260507035104 | 59 | 227 | 0.9 | 7.0 | 0.00 | 0.09 | 0.09 | 98 | 1009.1 |
| 20260507034105 | 59 | 249 | 2.6 | 7.0 | 0.00 | 0.09 | 0.09 | 98 | 1009.1 |
| 20260507033105 | 59 | 301 | 1.7 | 6.1 | 0.00 | 0.09 | 0.09 | 98 | 1009.1 |
| 20260507032104 | 59 | 239 | 1.7 | 5.2 | 0.00 | 0.09 | 0.09 | 98 | 1009.1 |
| 20260507031105 | 59 | 306 | 0.9 | 7.0 | 0.00 | 0.09 | 0.09 | 98 | 1008.8 |
| 20260507030104 | 59 | 264 | 2.6 | 7.0 | 0.00 | 0.09 | 0.09 | 98 | 1008.8 |
| 20260507025104 | 59 | 188 | 1.7 | 7.0 | 0.00 | 0.09 | 0.09 | 98 | 1008.8 |
| 20260507024106 | 59 | 270 | 1.7 | 5.2 | 0.00 | 0.09 | 0.09 | 98 | 1008.4 |
| 20260507022105 | 59 | 208 | 1.7 | 6.1 | 0.00 | 0.09 | 0.09 | 98 | 1008.8 |
| 20260507021105 | 59 | 210 | 1.7 | 7.8 | 0.00 | 0.09 | 0.09 | 98 | 1008.8 |
| 20260507020105 | 58 | 195 | 1.7 | 5.2 | 0.00 | 0.09 | 0.09 | 98 | 1008.8 |
| 20260507015104 | 58 | 166 | 4.3 | 7.0 | 0.00 | 0.09 | 0.09 | 98 | 1008.4 |
| 20260507014104 | 58 | 203 | 1.7 | 1.7 | 0.00 | 0.09 | 0.09 | 98 | 1008.4 |
| 20260507013105 | 58 | 200 | 1.7 | 7.0 | 0.00 | 0.09 | 0.09 | 98 | 1008.8 |
| 20260507012104 | 58 | 151 | 0.9 | 5.2 | 0.00 | 0.09 | 0.09 | 97 | 1008.8 |
| 20260507010105 | 58 | 186 | 0.9 | 5.2 | 0.00 | 0.09 | 0.09 | 97 | 1009.1 |
| 20260507005105 | 58 | 247 | 2.6 | 2.6 | 0.00 | 0.09 | 0.09 | 97 | 1009.1 |
| 20260507004106 | 58 | 232 | 1.7 | 7.8 | 0.01 | 0.09 | 0.09 | 97 | 1009.1 |
| 20260506235104 | 58 | 117 | 1.7 | 5.2 | 0.03 | 0.09 | 0.09 | 97 | 1008.8 |
| 20260506234105 | 58 | 164 | 1.7 | 5.2 | 0.02 | 0.08 | 0.08 | 97 | 1008.8 |
| 20260506233104 | 58 | 156 | 1.7 | 5.2 | 0.01 | 0.06 | 0.06 | 98 | 1008.4 |
| 20260506232104 | 58 | 197 | 4.3 | 7.0 | 0.01 | 0.06 | 0.06 | 98 | 1008.8 |
| 20260506230105 | 59 | 189 | 3.5 | 7.8 | 0.00 | 0.05 | 0.05 | 98 | 1008.8 |
| 20260506225104 | 59 | 164 | 4.3 | 6.1 | 0.00 | 0.05 | 0.05 | 98 | 1008.8 |
| 20260506223106 | 59 | 141 | 1.7 | 1.7 | 0.01 | 0.05 | 0.05 | 98 | 1008.8 |
| 20260506222103 | 59 | 174 | 2.6 | 7.0 | 0.01 | 0.05 | 0.05 | 98 | 1009.1 |
| 20260506221105 | 59 | 128 | 1.7 | 5.2 | 0.01 | 0.05 | 0.05 | 98 | 1009.1 |
| 20260506220105 | 59 | 160 | 4.3 | 7.0 | 0.01 | 0.05 | 0.05 | 98 | 1009.1 |
| 20260506215104 | 60 | 166 | 2.6 | 7.8 | 0.02 | 0.05 | 0.05 | 98 | 1009.1 |
| 20260506214103 | 60 | 154 | 0.9 | 10.4 | 0.03 | 0.05 | 0.05 | 98 | 1009.1 |
| 20260506213105 | 60 | 154 | 2.6 | 7.8 | 0.02 | 0.04 | 0.04 | 97 | 1009.4 |
| 20260506212104 | 60 | 153 | 4.3 | 7.0 | 0.02 | 0.04 | 0.04 | 97 | 1009.8 |
| 20260506205105 | 60 | 180 | 3.5 | 7.0 | 0.02 | 0.03 | 0.03 | 95 | 1009.8 |
| 20260506204106 | 61 | 123 | 4.3 | 8.7 | 0.01 | 0.02 | 0.02 | 93 | 1010.1 |
| 20260506202105 | 61 | 196 | 4.3 | 13.9 | 0.02 | 0.02 | 0.02 | 91 | 1010.5 |
| 20260506201104 | 61 | 236 | 2.6 | 6.1 | 0.01 | 0.01 | 0.01 | 91 | 1010.5 |
| 20260506200105 | 61 | 180 | 1.7 | 7.8 | 0.01 | 0.01 | 0.01 | 90 | 1010.5 |
| 20260506195104 | 62 | 214 | 4.3 | 7.8 | 0.01 | 0.01 | 0.01 | 87 | 1010.1 |
| 20260506194103 | 62 | 192 | 2.6 | 10.4 | 0.01 | 0.01 | 0.01 | 85 | 1010.5 |
| 20260506193105 | 63 | 167 | 1.7 | 5.2 | 0.01 | 0.01 | 0.01 | 83 | 1010.8 |
| 20260506191105 | 64 | 189 | 1.7 | 5.2 | 0.00 | 0.00 | 0.00 | 77 | 1011.1 |
| 20260506190103 | 66 | 176 | 6.1 | 12.2 | 0.00 | 0.00 | 0.00 | 71 | 1011.1 |
| 20260506183105 | 68 | 198 | 5.2 | 10.4 | 0.00 | 0.00 | 0.00 | 62 | 1011.1 |
| 20260506182105 | 69 | 169 | 6.1 | 12.2 | 0.00 | 0.00 | 0.00 | 61 | 1011.5 |
| 20260506181105 | 69 | 176 | 3.5 | 7.8 | 0.00 | 0.00 | 0.00 | 61 | 1011.5 |
| 20260506180105 | 69 | 175 | 2.6 | 7.0 | 0.00 | 0.00 | 0.00 | 60 | 1011.8 |
| 20260506175105 | 70 | 150 | 2.6 | 12.2 | 0.00 | 0.00 | 0.00 | 58 | 1011.8 |
| 20260506174105 | 71 | 144 | 4.3 | 13.9 | 0.00 | 0.00 | 0.00 | 56 | 1012.2 |
| 20260506173105 | 71 | 188 | 7.0 | 19.1 | 0.00 | 0.00 | 0.00 | 54 | 1012.2 |
| 20260506172104 | 72 | 174 | 10.4 | 13.0 | 0.00 | 0.00 | 0.00 | 54 | 1012.2 |
| 20260506171105 | 72 | 354 | 5.2 | 7.8 | 0.00 | 0.00 | 0.00 | 55 | 1011.8 |
| 20260506170104 | 72 | 182 | 5.2 | 7.8 | 0.00 | 0.00 | 0.00 | 55 | 1012.2 |
| 20260506165104 | 72 | 38 | 2.6 | 7.0 | 0.00 | 0.00 | 0.00 | 57 | 1012.2 |
| 20260506164104 | 72 | 184 | 2.6 | 7.8 | 0.00 | 0.00 | 0.00 | 57 | 1012.5 |
| 20260506162105 | 72 | 193 | 1.7 | 7.0 | 0.00 | 0.00 | 0.00 | 55 | 1012.8 |
| 20260506161104 | 72 | 150 | 4.3 | 10.4 | 0.00 | 0.00 | 0.00 | 54 | 1012.8 |
| 20260506160104 | 72 | 198 | 2.6 | 10.4 | 0.00 | 0.00 | 0.00 | 54 | 1012.8 |
| 20260506155105 | 72 | 180 | 6.1 | 7.0 | 0.00 | 0.00 | 0.00 | 56 | 1013.2 |
| 20260506154104 | 72 | 211 | 6.1 | 7.0 | 0.00 | 0.00 | 0.00 | 57 | 1013.2 |
| 20260506153106 | 72 | 211 | 2.6 | 6.1 | 0.00 | 0.00 | 0.00 | 58 | 1013.2 |
| 20260506152105 | 72 | 146 | 2.6 | 5.2 | 0.00 | 0.00 | 0.00 | 58 | 1013.2 |
| 20260506150104 | 71 | 138 | 5.2 | 10.4 | 0.00 | 0.00 | 0.00 | 58 | 1013.5 |
| 20260506145105 | 71 | 188 | 4.3 | 13.0 | 0.00 | 0.00 | 0.00 | 57 | 1013.5 |
| 20260506144104 | 70 | 193 | 5.2 | 10.4 | 0.00 | 0.00 | 0.00 | 59 | 1013.2 |
| 20260506142104 | 70 | 105 | 4.3 | 7.0 | 0.00 | 0.00 | 0.00 | 61 | 1013.2 |
| 20260506140106 | 69 | 160 | 4.3 | 5.2 | 0.00 | 0.00 | 0.00 | 65 | 1012.8 |
| 20260506135105 | 67 | 189 | 2.6 | 6.1 | 0.00 | 0.00 | 0.00 | 68 | 1012.8 |
| 20260506134105 | 67 | 216 | 4.3 | 5.2 | 0.00 | 0.00 | 0.00 | 70 | 1012.8 |
| 20260506124104 | 64 | 176 | 2.6 | 5.2 | 0.00 | 0.00 | 0.00 | 77 | 1013.2 |
| 20260506123105 | 63 | 196 | 4.3 | 5.2 | 0.00 | 0.00 | 0.00 | 78 | 1013.2 |
| 20260506122105 | 63 | 111 | 1.7 | 7.8 | 0.00 | 0.00 | 0.00 | 81 | 1013.2 |
| 20260506120105 | 61 | 118 | 2.6 | 2.6 | 0.00 | 0.00 | 0.00 | 85 | 1013.2 |
| 20260506115105 | 60 | 164 | 3.5 | 7.0 | 0.00 | 0.00 | 0.00 | 86 | 1013.2 |
| 20260506114104 | 60 | 159 | 1.7 | 5.2 | 0.00 | 0.00 | 0.00 | 86 | 1013.2 |
| 20260506111104 | 59 | 121 | 1.7 | 7.0 | 0.00 | 0.00 | 0.00 | 88 | 1013.2 |
| 20260506110105 | 59 | 141 | 2.6 | 7.0 | 0.00 | 0.00 | 0.00 | 89 | 1013.2 |
| 20260506105104 | 59 | 186 | 2.6 | 5.2 | 0.00 | 0.00 | 0.00 | 88 | 1013.2 |
| 20260506102105 | 59 | 90 | 1.7 | 5.2 | 0.00 | 0.00 | 0.00 | 87 | 1013.2 |
| 20260506101105 | 59 | 219 | 1.7 | 8.7 | 0.00 | 0.00 | 0.00 | 87 | 1013.2 |
| 20260506095105 | 59 | 174 | 1.7 | 2.6 | 0.00 | 0.00 | 0.00 | 86 | 1012.8 |
| 20260506094105 | 59 | 169 | 0.9 | 1.7 | 0.00 | 0.00 | 0.00 | 86 | 1012.8 |
| 20260506093105 | 60 | 225 | 1.7 | 6.1 | 0.00 | 0.00 | 0.00 | 85 | 1012.8 |
| 20260506092105 | 60 | 176 | 1.7 | 1.7 | 0.00 | 0.00 | 0.00 | 85 | 1012.8 |
| 20260506091105 | 60 | 180 | 4.3 | 5.2 | 0.00 | 0.00 | 0.00 | 84 | 1012.8 |
| 20260506090105 | 60 | 140 | 2.6 | 2.6 | 0.00 | 0.00 | 0.00 | 84 | 1013.2 |
| 20260506085105 | 60 | 258 | 1.7 | 5.2 | 0.00 | 0.00 | 0.00 | 83 | 1013.2 |
| 20260506084105 | 60 | 154 | 1.7 | 7.8 | 0.00 | 0.00 | 0.00 | 82 | 1013.2 |
| 20260506083104 | 61 | 157 | 1.7 | 5.2 | 0.00 | 0.00 | 0.00 | 82 | 1013.2 |
| 20260506082104 | 61 | 227 | 3.5 | 10.4 | 0.00 | 0.00 | 0.00 | 81 | 1013.2 |
| 20260506080104 | 61 | 137 | 4.3 | 10.4 | 0.00 | 0.00 | 0.00 | 80 | 1013.2 |
| 20260506073105 | 61 | 147 | 2.6 | 7.0 | 0.00 | 0.00 | 0.00 | 79 | 1013.2 |
| 20260506072106 | 61 | 206 | 0.9 | 5.2 | 0.00 | 0.00 | 0.00 | 79 | 1013.2 |
| 20260506071104 | 61 | 202 | 1.7 | 7.0 | 0.00 | 0.00 | 0.00 | 78 | 1013.2 |
| 20260506070107 | 62 | 196 | 4.3 | 7.0 | 0.00 | 0.00 | 0.00 | 77 | 1013.2 |
| 20260506062105 | 62 | 200 | 6.1 | 10.4 | 0.00 | 0.00 | 0.00 | 75 | 1013.2 |
| 20260506061105 | 62 | 226 | 3.5 | 6.1 | 0.00 | 0.00 | 0.00 | 75 | 1013.2 |
| 20260506060104 | 63 | 151 | 4.3 | 10.4 | 0.00 | 0.00 | 0.00 | 74 | 1013.2 |
| 20260506051104 | 63 | 161 | 2.6 | 8.7 | 0.00 | 0.00 | 0.00 | 70 | 1013.9 |
| 20260506050105 | 63 | 175 | 3.5 | 6.1 | 0.00 | 0.00 | 0.00 | 69 | 1013.5 |
| 20260506045106 | 63 | 156 | 4.3 | 7.0 | 0.00 | 0.00 | 0.00 | 69 | 1013.9 |
| 20260506044106 | 63 | 189 | 3.5 | 7.8 | 0.00 | 0.00 | 0.00 | 68 | 1013.9 |
| 20260506043105 | 63 | 190 | 2.6 | 10.4 | 0.00 | 0.00 | 0.00 | 67 | 1013.9 |
| 20260506042105 | 63 | 208 | 4.3 | 7.0 | 0.00 | 0.00 | 0.00 | 66 | 1013.9 |
| 20260506041106 | 63 | 182 | 5.2 | 10.4 | 0.00 | 0.00 | 0.00 | 66 | 1013.9 |